,,,PA_Meas_PMT16A,,PR_Meas_QMR101_102,,RH_Meas_QMH101,,SR_Meas_QMS101,,TA_Meas_QMH101,,GenWind,,GenWind,
date,time,status,PA,status,PR,status,RH,status,SR,status,TA,status,DirAvg,status,SpdAvg,
2011-02-09, 00:00:04,VALID,998.286,VALID,0,VALID,90.8306,VALID,0,VALID,23.8183,VALID,4,VALID,0,
2011-02-09, 00:01:04,VALID,998.307,VALID,0,VALID,90.8764,VALID,0,VALID,23.8183,VALID,4,VALID,0,
2011-02-09, 00:02:04,VALID,998.289,VALID,0,VALID,90.8535,VALID,0,VALID,23.7988,VALID,4,VALID,0,
2011-02-09, 00:03:04,VALID,998.254,VALID,0,VALID,90.8764,VALID,0,VALID,23.7988,VALID,4,VALID,0,
2011-02-09, 00:04:04,VALID,998.284,VALID,0,VALID,90.9069,VALID,0,VALID,23.7988,VALID,4,VALID,0.06875,
2011-02-09, 00:05:04,VALID,998.235,VALID,0,VALID,90.8917,VALID,0,VALID,23.7793,VALID,4,VALID,0.447656,
2011-02-09, 00:06:04,VALID,998.221,VALID,0,VALID,90.8611,VALID,0.112286,VALID,23.7579,VALID,4,VALID,0.352344,
2011-02-09, 00:07:04,VALID,998.241,VALID,0,VALID,90.9069,VALID,0,VALID,23.7793,VALID,4,VALID,0.466016,
2011-02-09, 00:08:04,VALID,998.245,VALID,0,VALID,90.8688,VALID,0,VALID,23.7597,VALID,4,VALID,0.319531,
2011-02-09, 00:09:04,VALID,998.273,VALID,0,VALID,90.8535,VALID,0,VALID,23.7384,VALID,4,VALID,0.310937,
2011-02-09, 00:10:04,VALID,998.282,VALID,0,VALID,90.8077,VALID,0,VALID,23.7384,VALID,4,VALID,0.203906,
2011-02-09, 00:11:04,VALID,998.245,VALID,0,VALID,90.884,VALID,0,VALID,23.7793,VALID,4,VALID,0.221484,
2011-02-09, 00:12:04,VALID,998.235,VALID,0,VALID,90.9146,VALID,0,VALID,23.7793,VALID,4,VALID,0.453516,
2011-02-09, 00:13:04,VALID,998.246,VALID,0,VALID,90.9451,VALID,0,VALID,23.7579,VALID,94,VALID,0.909766,
2011-02-09, 00:14:05,VALID,998.249,VALID,0,VALID,90.9603,VALID,0,VALID,23.7793,VALID,109,VALID,0.965625,
2011-02-09, 00:15:05,VALID,998.24,VALID,0,VALID,90.968,VALID,0,VALID,23.7384,VALID,109,VALID,0.970703,
2011-02-09, 00:16:05,VALID,998.206,VALID,0,VALID,91.0519,VALID,0,VALID,23.7988,VALID,118,VALID,0.936719,
2011-02-09, 00:17:05,VALID,998.219,VALID,0,VALID,91.0977,VALID,0.112286,VALID,23.7579,VALID,109,VALID,1.37305,
2011-02-09, 00:18:05,VALID,998.199,VALID,0,VALID,91.1282,VALID,0,VALID,23.7579,VALID,117,VALID,1.02383,
2011-02-09, 00:19:05,VALID,998.219,VALID,0,VALID,91.1816,VALID,0,VALID,23.7793,VALID,124,VALID,1.27188,
2011-02-09, 00:20:05,VALID,998.235,VALID,0,VALID,91.1663,VALID,0,VALID,23.7384,VALID,125,VALID,1.29102,
2011-02-09, 00:21:05,VALID,998.227,VALID,0,VALID,91.1587,VALID,0,VALID,23.7384,VALID,129,VALID,1.09922,
2011-02-09, 00:22:05,VALID,998.224,VALID,0,VALID,91.1587,VALID,0,VALID,23.7597,VALID,136,VALID,1.29766,
2011-02-09, 00:23:05,VALID,998.191,VALID,0,VALID,91.1968,VALID,0,VALID,23.7384,VALID,139,VALID,1.09023,
2011-02-09, 00:24:05,VALID,998.175,VALID,0,VALID,91.2045,VALID,0,VALID,23.7597,VALID,139,VALID,1.24297,
2011-02-09, 00:25:05,VALID,998.144,VALID,0,VALID,91.2426,VALID,0.112286,VALID,23.7597,VALID,148,VALID,0.984375,
2011-02-09, 00:26:05,VALID,998.129,VALID,0,VALID,91.2274,VALID,0,VALID,23.7597,VALID,148,VALID,1.05898,
2011-02-09, 00:27:05,VALID,998.097,VALID,0,VALID,91.2426,VALID,0,VALID,23.7384,VALID,148,VALID,0.975391,
2011-02-09, 00:28:05,VALID,998.117,VALID,0,VALID,91.2808,VALID,0,VALID,23.7597,VALID,148,VALID,0.693359,
2011-02-09, 00:29:05,VALID,998.115,VALID,0,VALID,91.2731,VALID,0,VALID,23.7597,VALID,140,VALID,1.05977,
2011-02-09, 00:30:05,VALID,998.092,VALID,0,VALID,91.1892,VALID,0,VALID,23.7207,VALID,134,VALID,1.0125,
2011-02-09, 00:31:05,VALID,998.086,VALID,0,VALID,91.1129,VALID,0,VALID,23.6994,VALID,136,VALID,0.972266,
2011-02-09, 00:32:05,VALID,998.059,VALID,0,VALID,91.0595,VALID,0,VALID,23.7402,VALID,136,VALID,0.778516,
2011-02-09, 00:33:05,VALID,998.039,VALID,0,VALID,90.9756,VALID,0,VALID,23.7207,VALID,135,VALID,0.696094,
2011-02-09, 00:34:05,VALID,998.003,VALID,0,VALID,90.9298,VALID,0,VALID,23.6994,VALID,135,VALID,0.74375,
2011-02-09, 00:35:05,VALID,997.968,VALID,0,VALID,90.8764,VALID,0.112286,VALID,23.7012,VALID,135,VALID,0.778516,
2011-02-09, 00:36:05,VALID,997.933,VALID,0,VALID,90.8383,VALID,0,VALID,23.6799,VALID,132,VALID,0.722266,
2011-02-09, 00:37:05,VALID,997.93,VALID,0,VALID,90.8688,VALID,0,VALID,23.7012,VALID,117,VALID,0.617188,
2011-02-09, 00:38:05,VALID,997.912,VALID,0,VALID,90.8993,VALID,0,VALID,23.6799,VALID,89,VALID,0.638672,
2011-02-09, 00:39:05,VALID,997.919,VALID,0,VALID,90.968,VALID,0,VALID,23.7012,VALID,76,VALID,0.76875,
2011-02-09, 00:40:05,VALID,997.869,VALID,0,VALID,90.9832,VALID,0,VALID,23.6604,VALID,76,VALID,0.763281,
2011-02-09, 00:41:05,VALID,997.845,VALID,0,VALID,90.9374,VALID,0,VALID,23.6427,VALID,76,VALID,0.961719,
2011-02-09, 00:42:05,VALID,997.819,VALID,0,VALID,90.8993,VALID,0,VALID,23.6232,VALID,76,VALID,1.10508,
2011-02-09, 00:43:05,VALID,997.813,VALID,0,VALID,90.8993,VALID,0,VALID,23.6232,VALID,76,VALID,1.13008,
2011-02-09, 00:44:05,VALID,997.823,VALID,0,VALID,90.8306,VALID,0,VALID,23.6036,VALID,76,VALID,0.977734,
2011-02-09, 00:45:05,VALID,997.788,VALID,0,VALID,90.7467,VALID,0,VALID,23.5841,VALID,76,VALID,0.130078,
2011-02-09, 00:46:05,VALID,997.77,VALID,0,VALID,90.7314,VALID,0,VALID,23.5841,VALID,76,VALID,0,
2011-02-09, 00:47:05,VALID,997.77,VALID,0,VALID,90.7696,VALID,0,VALID,23.5859,VALID,339,VALID,0.662891,
2011-02-09, 00:48:05,VALID,997.716,VALID,0,VALID,90.8001,VALID,0,VALID,23.5646,VALID,337,VALID,0.502344,
2011-02-09, 00:49:05,VALID,997.694,VALID,0,VALID,90.7849,VALID,0,VALID,23.5859,VALID,337,VALID,0.357812,
2011-02-09, 00:50:05,VALID,997.66,VALID,0,VALID,90.8077,VALID,0,VALID,23.5859,VALID,337,VALID,0.230469,
2011-02-09, 00:51:05,VALID,997.605,VALID,0,VALID,90.8459,VALID,0,VALID,23.5859,VALID,337,VALID,0.409766,
2011-02-09, 00:52:05,VALID,997.581,VALID,0,VALID,90.762,VALID,0,VALID,23.5451,VALID,337,VALID,0.60625,
2011-02-09, 00:53:05,VALID,997.563,VALID,0,VALID,90.6933,VALID,0,VALID,23.5664,VALID,337,VALID,0.490234,
2011-02-09, 00:54:05,VALID,997.555,VALID,0,VALID,90.6551,VALID,0,VALID,23.5469,VALID,337,VALID,0.601172,
2011-02-09, 00:55:05,VALID,997.538,VALID,0,VALID,90.6246,VALID,0,VALID,23.5469,VALID,89,VALID,0.806641,
2011-02-09, 00:56:05,VALID,997.539,VALID,0,VALID,90.6628,VALID,0,VALID,23.5451,VALID,115,VALID,0.708984,
2011-02-09, 00:57:05,VALID,997.559,VALID,0,VALID,90.7391,VALID,0,VALID,23.5841,VALID,99,VALID,1.03789,
2011-02-09, 00:58:05,VALID,997.553,VALID,0,VALID,90.823,VALID,0,VALID,23.6036,VALID,101,VALID,1.34531,
2011-02-09, 00:59:05,VALID,997.557,VALID,0,VALID,90.884,VALID,0,VALID,23.6036,VALID,112,VALID,0.943359,
2011-02-09, 01:00:05,VALID,997.565,VALID,0,VALID,90.9374,VALID,0,VALID,23.5823,VALID,91,VALID,1.2543,
2011-02-09, 01:01:05,VALID,997.585,VALID,0,VALID,91.0137,VALID,0,VALID,23.6036,VALID,81,VALID,0.694531,
2011-02-09, 01:02:05,VALID,997.56,VALID,0,VALID,91.0443,VALID,0,VALID,23.5823,VALID,79,VALID,1.02656,
2011-02-09, 01:03:05,VALID,997.548,VALID,0,VALID,91.0595,VALID,0,VALID,23.5628,VALID,62,VALID,0.858594,
2011-02-09, 01:04:05,VALID,997.529,VALID,0,VALID,91.0595,VALID,0,VALID,23.5628,VALID,62,VALID,0.842578,
2011-02-09, 01:05:05,VALID,997.534,VALID,0,VALID,90.9985,VALID,0,VALID,23.5433,VALID,62,VALID,0.529688,
2011-02-09, 01:06:05,VALID,997.489,VALID,0,VALID,90.9756,VALID,0,VALID,23.5256,VALID,62,VALID,0.378516,
2011-02-09, 01:07:05,VALID,997.491,VALID,0,VALID,90.9222,VALID,0.112286,VALID,23.5256,VALID,62,VALID,0.517578,
2011-02-09, 01:08:05,VALID,997.423,VALID,0,VALID,90.9527,VALID,0,VALID,23.4848,VALID,15,VALID,0.621094,
2011-02-09, 01:09:05,VALID,997.43,VALID,0,VALID,90.9909,VALID,0,VALID,23.4866,VALID,15,VALID,0.766406,
2011-02-09, 01:10:05,VALID,997.406,VALID,0,VALID,90.9985,VALID,0,VALID,23.4866,VALID,15,VALID,0.629687,
2011-02-09, 01:11:05,VALID,997.393,VALID,0,VALID,91.029,VALID,0.112286,VALID,23.4671,VALID,33,VALID,0.653906,
2011-02-09, 01:12:05,VALID,997.381,VALID,0,VALID,91.0137,VALID,0,VALID,23.4458,VALID,55,VALID,0.569922,
2011-02-09, 01:13:05,VALID,997.358,VALID,0,VALID,91.0214,VALID,0,VALID,23.4458,VALID,66,VALID,0.751953,
2011-02-09, 01:14:05,VALID,997.355,VALID,0,VALID,90.9985,VALID,0,VALID,23.4475,VALID,66,VALID,0.642187,
2011-02-09, 01:15:05,VALID,997.337,VALID,0,VALID,91.0137,VALID,0,VALID,23.4458,VALID,66,VALID,0.658203,
2011-02-09, 01:16:05,VALID,997.31,VALID,0,VALID,91.0595,VALID,0,VALID,23.4475,VALID,66,VALID,0.652734,
2011-02-09, 01:17:05,VALID,997.303,VALID,0,VALID,91.1206,VALID,0,VALID,23.4067,VALID,66,VALID,0.653906,
2011-02-09, 01:18:05,VALID,997.327,VALID,0,VALID,91.1434,VALID,0,VALID,23.428,VALID,66,VALID,0.624609,
2011-02-09, 01:19:05,VALID,997.286,VALID,0,VALID,91.1968,VALID,0,VALID,23.4085,VALID,66,VALID,0.511719,
2011-02-09, 01:20:05,VALID,997.275,VALID,0,VALID,91.2579,VALID,0.112286,VALID,23.389,VALID,66,VALID,0.353125,
2011-02-09, 01:21:05,VALID,997.274,VALID,0,VALID,91.296,VALID,0,VALID,23.3677,VALID,66,VALID,0.526563,
2011-02-09, 01:22:05,VALID,997.247,VALID,0,VALID,91.3494,VALID,0,VALID,23.3677,VALID,72,VALID,0.618359,
2011-02-09, 01:23:05,VALID,997.246,VALID,0,VALID,91.3723,VALID,0,VALID,23.3695,VALID,72,VALID,0.270312,
2011-02-09, 01:24:05,VALID,997.213,VALID,0,VALID,91.3952,VALID,0,VALID,23.3695,VALID,72,VALID,0,
2011-02-09, 01:25:05,VALID,997.214,VALID,0,VALID,91.4181,VALID,0,VALID,23.3482,VALID,72,VALID,0,
2011-02-09, 01:26:05,VALID,997.194,VALID,0,VALID,91.441,VALID,0.112286,VALID,23.3287,VALID,72,VALID,0,
2011-02-09, 01:27:05,VALID,997.193,VALID,0,VALID,91.4334,VALID,0,VALID,23.3092,VALID,72,VALID,0,
2011-02-09, 01:28:05,VALID,997.213,VALID,0,VALID,91.4639,VALID,0,VALID,23.3092,VALID,72,VALID,0,
2011-02-09, 01:29:05,VALID,997.184,VALID,0,VALID,91.502,VALID,0,VALID,23.311,VALID,72,VALID,0,
2011-02-09, 01:30:05,VALID,997.218,VALID,0,VALID,91.5097,VALID,0,VALID,23.311,VALID,72,VALID,0,
2011-02-09, 01:31:05,VALID,997.207,VALID,0,VALID,91.5554,VALID,0,VALID,23.311,VALID,72,VALID,0,
2011-02-09, 01:32:05,VALID,997.204,VALID,0,VALID,91.6012,VALID,0,VALID,23.2897,VALID,72,VALID,0,
2011-02-09, 01:33:05,VALID,997.171,VALID,0,VALID,91.6317,VALID,0,VALID,23.3305,VALID,72,VALID,0,
2011-02-09, 01:34:05,VALID,997.143,VALID,0,VALID,91.6623,VALID,0,VALID,23.311,VALID,72,VALID,0,
2011-02-09, 01:35:05,VALID,997.162,VALID,0,VALID,91.6699,VALID,0,VALID,23.311,VALID,72,VALID,0,
2011-02-09, 01:36:05,VALID,997.153,VALID,0,VALID,91.6775,VALID,0,VALID,23.2915,VALID,72,VALID,0,
2011-02-09, 01:37:05,VALID,997.124,VALID,0,VALID,91.6623,VALID,0,VALID,23.2915,VALID,72,VALID,0,
2011-02-09, 01:38:05,VALID,997.141,VALID,0,VALID,91.6623,VALID,0,VALID,23.2897,VALID,83,VALID,0,
2011-02-09, 01:39:05,VALID,997.125,VALID,0,VALID,91.6546,VALID,0,VALID,23.2915,VALID,98,VALID,0,
2011-02-09, 01:40:05,VALID,997.114,VALID,0,VALID,91.6012,VALID,0,VALID,23.2915,VALID,104,VALID,0,
2011-02-09, 01:41:05,VALID,997.116,VALID,0,VALID,91.5402,VALID,0,VALID,23.2915,VALID,112,VALID,0,
2011-02-09, 01:42:05,VALID,997.135,VALID,0,VALID,91.4563,VALID,0,VALID,23.311,VALID,112,VALID,0,
2011-02-09, 01:43:05,VALID,997.122,VALID,0,VALID,91.3342,VALID,0,VALID,23.3323,VALID,112,VALID,0,
2011-02-09, 01:44:05,VALID,997.101,VALID,0,VALID,91.1968,VALID,0,VALID,23.3305,VALID,111,VALID,1.07891,
2011-02-09, 01:45:05,VALID,997.076,VALID,0,VALID,91.0137,VALID,0,VALID,23.389,VALID,111,VALID,0.582422,
2011-02-09, 01:46:05,VALID,997.099,VALID,0,VALID,90.8306,VALID,0,VALID,23.4085,VALID,111,VALID,0.152734,
2011-02-09, 01:47:05,VALID,997.082,VALID,0,VALID,90.6933,VALID,0,VALID,23.428,VALID,111,VALID,0,
2011-02-09, 01:48:05,VALID,997.081,VALID,0,VALID,90.6323,VALID,0,VALID,23.428,VALID,111,VALID,0.000390625,
2011-02-09, 01:49:05,VALID,997.03,VALID,0,VALID,90.5865,VALID,0,VALID,23.4475,VALID,111,VALID,0.0667969,
2011-02-09, 01:50:05,VALID,997.058,VALID,0,VALID,90.5102,VALID,0,VALID,23.428,VALID,111,VALID,0.119141,
2011-02-09, 01:51:05,VALID,997.042,VALID,0,VALID,90.4415,VALID,0,VALID,23.4475,VALID,111,VALID,0.2,
2011-02-09, 01:52:05,VALID,997.035,VALID,0,VALID,90.3881,VALID,0,VALID,23.4475,VALID,111,VALID,0.196484,
2011-02-09, 01:53:05,VALID,997.08,VALID,0,VALID,90.3271,VALID,0,VALID,23.4458,VALID,111,VALID,0,
2011-02-09, 01:54:05,VALID,997.08,VALID,0,VALID,90.266,VALID,0,VALID,23.4671,VALID,111,VALID,0,
2011-02-09, 01:55:05,VALID,997.102,VALID,0,VALID,90.2203,VALID,0,VALID,23.4866,VALID,111,VALID,0,
2011-02-09, 01:56:05,VALID,997.135,VALID,0,VALID,90.2355,VALID,0.112286,VALID,23.5256,VALID,111,VALID,0,
2011-02-09, 01:57:05,VALID,997.129,VALID,0,VALID,90.2431,VALID,0,VALID,23.5238,VALID,111,VALID,0,
2011-02-09, 01:58:05,VALID,997.183,VALID,0,VALID,90.2737,VALID,0,VALID,23.5646,VALID,144,VALID,0,
2011-02-09, 01:59:05,VALID,997.187,VALID,0,VALID,90.3728,VALID,0,VALID,23.5823,VALID,144,VALID,0,
2011-02-09, 02:00:05,VALID,997.189,VALID,0,VALID,90.472,VALID,0,VALID,23.6036,VALID,144,VALID,0,
2011-02-09, 02:01:05,VALID,997.195,VALID,0,VALID,90.5331,VALID,0,VALID,23.6036,VALID,144,VALID,0,
2011-02-09, 02:02:05,VALID,997.218,VALID,0,VALID,90.5636,VALID,0,VALID,23.5628,VALID,144,VALID,0,
2011-02-09, 02:03:05,VALID,997.232,VALID,0,VALID,90.6017,VALID,0,VALID,23.5628,VALID,144,VALID,0,
2011-02-09, 02:04:05,VALID,997.237,VALID,0,VALID,90.6094,VALID,0,VALID,23.5628,VALID,144,VALID,0,
2011-02-09, 02:05:05,VALID,997.276,VALID,0,VALID,90.6323,VALID,0,VALID,23.5433,VALID,144,VALID,0,
2011-02-09, 02:06:05,VALID,997.279,VALID,0,VALID,90.6246,VALID,0,VALID,23.5433,VALID,144,VALID,0,
2011-02-09, 02:07:05,VALID,997.299,VALID,0,VALID,90.6017,VALID,0,VALID,23.5433,VALID,74,VALID,0,
2011-02-09, 02:08:05,VALID,997.292,VALID,0,VALID,90.5636,VALID,0,VALID,23.5451,VALID,68,VALID,0.650781,
2011-02-09, 02:09:05,VALID,997.285,VALID,0,VALID,90.6017,VALID,0,VALID,23.5433,VALID,68,VALID,0.666406,
2011-02-09, 02:10:05,VALID,997.299,VALID,0,VALID,90.6857,VALID,0,VALID,23.5646,VALID,68,VALID,0.648828,
2011-02-09, 02:11:05,VALID,997.266,VALID,0,VALID,90.7391,VALID,0,VALID,23.5646,VALID,68,VALID,0.627734,
2011-02-09, 02:12:05,VALID,997.256,VALID,0,VALID,90.7467,VALID,0,VALID,23.5469,VALID,17,VALID,0.675781,
2011-02-09, 02:13:05,VALID,997.275,VALID,0,VALID,90.7314,VALID,0,VALID,23.5274,VALID,17,VALID,0.440625,
2011-02-09, 02:14:05,VALID,997.256,VALID,0,VALID,90.762,VALID,0,VALID,23.5274,VALID,17,VALID,0.233594,
2011-02-09, 02:15:05,VALID,997.276,VALID,0,VALID,90.8306,VALID,0,VALID,23.5079,VALID,17,VALID,0.508984,
2011-02-09, 02:16:05,VALID,997.255,VALID,0,VALID,90.8917,VALID,0,VALID,23.4884,VALID,17,VALID,0.575391,
2011-02-09, 02:17:05,VALID,997.273,VALID,0,VALID,90.9527,VALID,0,VALID,23.4688,VALID,17,VALID,0.676562,
2011-02-09, 02:18:05,VALID,997.264,VALID,0,VALID,90.9527,VALID,0,VALID,23.4493,VALID,17,VALID,0.439453,
2011-02-09, 02:19:05,VALID,997.292,VALID,0,VALID,90.968,VALID,0,VALID,23.4298,VALID,17,VALID,0.0859375,
2011-02-09, 02:20:05,VALID,997.266,VALID,0,VALID,90.968,VALID,0,VALID,23.4298,VALID,17,VALID,0,
2011-02-09, 02:21:05,VALID,997.269,VALID,0,VALID,90.9909,VALID,0,VALID,23.4103,VALID,17,VALID,0.00820312,
2011-02-09, 02:22:05,VALID,997.267,VALID,0,VALID,90.9832,VALID,0,VALID,23.4298,VALID,17,VALID,0.205469,
2011-02-09, 02:23:05,VALID,997.254,VALID,0,VALID,90.9909,VALID,0,VALID,23.4103,VALID,17,VALID,0,
2011-02-09, 02:24:05,VALID,997.268,VALID,0,VALID,90.9985,VALID,0,VALID,23.4103,VALID,17,VALID,0.198437,
2011-02-09, 02:25:05,VALID,997.237,VALID,0,VALID,91.0214,VALID,0,VALID,23.4103,VALID,17,VALID,0,
2011-02-09, 02:26:05,VALID,997.247,VALID,0,VALID,91.0214,VALID,0,VALID,23.3908,VALID,48,VALID,0.526563,
2011-02-09, 02:27:05,VALID,997.196,VALID,0,VALID,91.029,VALID,0,VALID,23.3872,VALID,120,VALID,0.895703,
2011-02-09, 02:28:05,VALID,997.189,VALID,0,VALID,91.0519,VALID,0,VALID,23.4085,VALID,130,VALID,1.13242,
2011-02-09, 02:29:05,VALID,997.158,VALID,0,VALID,91.09,VALID,0,VALID,23.4085,VALID,118,VALID,1.58516,
2011-02-09, 02:30:05,VALID,997.142,VALID,0,VALID,91.09,VALID,0,VALID,23.4085,VALID,117,VALID,1.46367,
2011-02-09, 02:31:05,VALID,997.174,VALID,0,VALID,91.09,VALID,0,VALID,23.4085,VALID,127,VALID,1.79219,
2011-02-09, 02:32:05,VALID,997.147,VALID,0,VALID,91.0595,VALID,0,VALID,23.428,VALID,126,VALID,1.42383,
2011-02-09, 02:33:05,VALID,997.109,VALID,0,VALID,91.0137,VALID,0,VALID,23.428,VALID,126,VALID,0.736328,
2011-02-09, 02:34:05,VALID,997.093,VALID,0,VALID,91.0061,VALID,0,VALID,23.428,VALID,126,VALID,0.0269531,
2011-02-09, 02:35:05,VALID,997.076,VALID,0,VALID,90.9756,VALID,0,VALID,23.428,VALID,126,VALID,0,
2011-02-09, 02:36:05,VALID,997.06,VALID,0,VALID,91.0443,VALID,0,VALID,23.428,VALID,174,VALID,0,
2011-02-09, 02:37:05,VALID,997.084,VALID,0,VALID,91.1206,VALID,0,VALID,23.4475,VALID,174,VALID,0,
2011-02-09, 02:38:05,VALID,997.069,VALID,0,VALID,91.1358,VALID,0,VALID,23.4475,VALID,174,VALID,0,
2011-02-09, 02:39:05,VALID,997.098,VALID,0,VALID,91.174,VALID,0,VALID,23.428,VALID,174,VALID,0,
2011-02-09, 02:40:05,VALID,997.085,VALID,0,VALID,91.1968,VALID,0,VALID,23.428,VALID,174,VALID,0,
2011-02-09, 02:41:05,VALID,997.082,VALID,0,VALID,91.1968,VALID,0,VALID,23.4085,VALID,174,VALID,0,
2011-02-09, 02:42:05,VALID,997.076,VALID,0,VALID,91.2197,VALID,0,VALID,23.4085,VALID,174,VALID,0,
2011-02-09, 02:43:05,VALID,997.045,VALID,0,VALID,91.235,VALID,0,VALID,23.4067,VALID,174,VALID,0,
2011-02-09, 02:44:05,VALID,997.04,VALID,0,VALID,91.2808,VALID,0,VALID,23.4263,VALID,174,VALID,0,
2011-02-09, 02:45:05,VALID,997.011,VALID,0,VALID,91.3037,VALID,0,VALID,23.4671,VALID,174,VALID,0,
2011-02-09, 02:46:05,VALID,997.017,VALID,0,VALID,91.3189,VALID,0,VALID,23.4458,VALID,174,VALID,0,
2011-02-09, 02:47:05,VALID,997,VALID,0,VALID,91.3113,VALID,0,VALID,23.4458,VALID,158,VALID,0,
2011-02-09, 02:48:05,VALID,996.942,VALID,0,VALID,91.2884,VALID,0,VALID,23.4866,VALID,157,VALID,0,
2011-02-09, 02:49:05,VALID,996.959,VALID,0,VALID,91.2426,VALID,0,VALID,23.4653,VALID,157,VALID,0,
2011-02-09, 02:50:05,VALID,996.914,VALID,0,VALID,91.1816,VALID,0.112286,VALID,23.5061,VALID,287,VALID,0,
2011-02-09, 02:51:05,VALID,996.943,VALID,0,VALID,91.1053,VALID,0,VALID,23.4848,VALID,320,VALID,0.698047,
2011-02-09, 02:52:05,VALID,996.979,VALID,0,VALID,91.0595,VALID,0.112286,VALID,23.4848,VALID,320,VALID,0.456641,
2011-02-09, 02:53:05,VALID,996.976,VALID,0,VALID,91.0748,VALID,0,VALID,23.4653,VALID,320,VALID,0.301953,
2011-02-09, 02:54:05,VALID,997.005,VALID,0,VALID,91.0366,VALID,0.112286,VALID,23.5061,VALID,320,VALID,0.510938,
2011-02-09, 02:55:05,VALID,997.004,VALID,0,VALID,90.9909,VALID,0,VALID,23.4848,VALID,320,VALID,0.64375,
2011-02-09, 02:56:05,VALID,996.998,VALID,0,VALID,90.8688,VALID,0,VALID,23.5043,VALID,74,VALID,0.930078,
2011-02-09, 02:57:04,VALID,997.008,VALID,0,VALID,90.7543,VALID,0,VALID,23.5451,VALID,74,VALID,1.13672,
2011-02-09, 02:58:04,VALID,996.996,VALID,0,VALID,90.6704,VALID,0.112286,VALID,23.5043,VALID,77,VALID,1.23516,
2011-02-09, 02:59:04,VALID,996.982,VALID,0,VALID,90.7085,VALID,0,VALID,23.5043,VALID,72,VALID,0.907031,
2011-02-09, 03:00:04,VALID,996.984,VALID,0,VALID,90.7162,VALID,0.112286,VALID,23.5061,VALID,61,VALID,0.810156,
2011-02-09, 03:01:04,VALID,996.944,VALID,0,VALID,90.7238,VALID,0,VALID,23.4671,VALID,53,VALID,0.861328,
2011-02-09, 03:02:04,VALID,996.933,VALID,0,VALID,90.7467,VALID,0.112286,VALID,23.4067,VALID,51,VALID,0.859766,
2011-02-09, 03:03:04,VALID,996.924,VALID,0,VALID,90.8154,VALID,0.112286,VALID,23.3482,VALID,50,VALID,0.840625,
2011-02-09, 03:04:04,VALID,996.898,VALID,0,VALID,91.0061,VALID,0,VALID,23.35,VALID,49,VALID,1.24102,
2011-02-09, 03:05:04,VALID,996.904,VALID,0,VALID,91.1511,VALID,0.112286,VALID,23.3092,VALID,42,VALID,1.00937,
2011-02-09, 03:06:04,VALID,996.92,VALID,0,VALID,91.2655,VALID,0,VALID,23.3092,VALID,32,VALID,0.90625,
2011-02-09, 03:07:04,VALID,996.951,VALID,0,VALID,91.3571,VALID,0,VALID,23.2702,VALID,31,VALID,0.741797,
2011-02-09, 03:08:04,VALID,996.947,VALID,0,VALID,91.4486,VALID,0,VALID,23.2312,VALID,35,VALID,0.749609,
2011-02-09, 03:09:04,VALID,996.992,VALID,0,VALID,91.5783,VALID,0,VALID,23.2524,VALID,57,VALID,1.03984,
2011-02-09, 03:10:04,VALID,996.993,VALID,0,VALID,91.6699,VALID,0,VALID,23.2329,VALID,64,VALID,1.22305,
2011-02-09, 03:11:04,VALID,997.031,VALID,0,VALID,91.7614,VALID,0,VALID,23.2117,VALID,66,VALID,0.945313,
2011-02-09, 03:12:04,VALID,996.977,VALID,0,VALID,91.7996,VALID,0,VALID,23.2347,VALID,70,VALID,0.976953,
2011-02-09, 03:13:04,VALID,996.982,VALID,0,VALID,91.8454,VALID,0,VALID,23.1939,VALID,76,VALID,0.482422,
2011-02-09, 03:14:04,VALID,997.001,VALID,0,VALID,91.8911,VALID,0,VALID,23.1957,VALID,80,VALID,0.653125,
2011-02-09, 03:15:04,VALID,996.998,VALID,0,VALID,91.9217,VALID,0,VALID,23.1939,VALID,80,VALID,0.355078,
2011-02-09, 03:16:04,VALID,996.982,VALID,0,VALID,91.9445,VALID,0,VALID,23.1744,VALID,349,VALID,0.484375,
2011-02-09, 03:17:04,VALID,997.005,VALID,0,VALID,91.9522,VALID,0,VALID,23.1744,VALID,29,VALID,0.600391,
2011-02-09, 03:18:04,VALID,997.01,VALID,0,VALID,91.9903,VALID,0,VALID,23.1762,VALID,3,VALID,0.721094,
2011-02-09, 03:19:04,VALID,997.028,VALID,0,VALID,91.998,VALID,0,VALID,23.1549,VALID,360,VALID,0.536328,
2011-02-09, 03:20:04,VALID,997.027,VALID,0,VALID,91.9827,VALID,0,VALID,23.1566,VALID,360,VALID,0.320703,
2011-02-09, 03:21:04,VALID,997.046,VALID,0,VALID,91.9827,VALID,0,VALID,23.1159,VALID,16,VALID,0.686328,
2011-02-09, 03:22:04,VALID,997.105,VALID,0,VALID,92.0209,VALID,0,VALID,23.1354,VALID,41,VALID,0.996875,
2011-02-09, 03:23:04,VALID,997.132,VALID,0,VALID,92.0514,VALID,0,VALID,23.1549,VALID,48,VALID,1.04609,
2011-02-09, 03:24:04,VALID,997.194,VALID,0,VALID,92.059,VALID,0,VALID,23.1939,VALID,51,VALID,0.8875,
2011-02-09, 03:25:04,VALID,997.26,VALID,0,VALID,92.0361,VALID,0,VALID,23.2347,VALID,51,VALID,0.734375,
2011-02-09, 03:26:04,VALID,997.278,VALID,0,VALID,92.0285,VALID,0,VALID,23.2329,VALID,65,VALID,0.68125,
2011-02-09, 03:27:04,VALID,997.318,VALID,0,VALID,91.9751,VALID,0,VALID,23.2524,VALID,68,VALID,0.379687,
2011-02-09, 03:28:04,VALID,997.414,VALID,0,VALID,91.8988,VALID,0,VALID,23.2329,VALID,68,VALID,0.0898438,
2011-02-09, 03:29:04,VALID,997.447,VALID,0,VALID,91.8454,VALID,0,VALID,23.2542,VALID,68,VALID,0.0679687,
2011-02-09, 03:30:04,VALID,997.514,VALID,0,VALID,91.7843,VALID,0,VALID,23.2542,VALID,313,VALID,0.620703,
2011-02-09, 03:31:04,VALID,997.581,VALID,0,VALID,91.7767,VALID,0,VALID,23.2524,VALID,313,VALID,0.730469,
2011-02-09, 03:32:04,VALID,997.64,VALID,0,VALID,91.7767,VALID,0,VALID,23.2719,VALID,313,VALID,0.728516,
2011-02-09, 03:33:04,VALID,997.644,VALID,0,VALID,91.792,VALID,0,VALID,23.2719,VALID,320,VALID,0.823828,
2011-02-09, 03:34:04,VALID,997.682,VALID,0,VALID,91.7614,VALID,0,VALID,23.3127,VALID,10,VALID,0.711719,
2011-02-09, 03:35:04,VALID,997.679,VALID,0,VALID,91.7462,VALID,0,VALID,23.2915,VALID,11,VALID,0.811328,
2011-02-09, 03:36:04,VALID,997.725,VALID,0,VALID,91.7004,VALID,0,VALID,23.3323,VALID,11,VALID,0.790625,
2011-02-09, 03:37:04,VALID,997.726,VALID,0,VALID,91.647,VALID,0,VALID,23.3908,VALID,23,VALID,0.742578,
2011-02-09, 03:38:04,VALID,997.727,VALID,0,VALID,91.4944,VALID,0,VALID,23.4085,VALID,13,VALID,0.806641,
2011-02-09, 03:39:04,VALID,997.765,VALID,0,VALID,91.3494,VALID,0,VALID,23.4688,VALID,5,VALID,0.655078,
2011-02-09, 03:40:04,VALID,997.763,VALID,0,VALID,91.1663,VALID,0,VALID,23.4866,VALID,5,VALID,0.977734,
2011-02-09, 03:41:04,VALID,997.771,VALID,0,VALID,91.0061,VALID,0,VALID,23.5061,VALID,3,VALID,0.685938,
2011-02-09, 03:42:04,VALID,997.745,VALID,0,VALID,90.8993,VALID,0,VALID,23.5469,VALID,310,VALID,0.638672,
2011-02-09, 03:43:04,VALID,997.793,VALID,0,VALID,90.8459,VALID,0,VALID,23.5451,VALID,310,VALID,0.338281,
2011-02-09, 03:44:04,VALID,997.793,VALID,0,VALID,90.8077,VALID,0,VALID,23.5256,VALID,310,VALID,0.0121094,
2011-02-09, 03:45:04,VALID,997.817,VALID,0,VALID,90.7543,VALID,0,VALID,23.5256,VALID,310,VALID,0,
2011-02-09, 03:46:04,VALID,997.826,VALID,0,VALID,90.7238,VALID,0,VALID,23.5061,VALID,310,VALID,0.215234,
2011-02-09, 03:47:04,VALID,997.849,VALID,0,VALID,90.6704,VALID,0,VALID,23.5061,VALID,310,VALID,0.271875,
2011-02-09, 03:48:04,VALID,997.839,VALID,0,VALID,90.6933,VALID,0,VALID,23.5061,VALID,310,VALID,0.128516,